Sitka, AK

5:38 AM AKDT on April 27, 2017 (GMT -0800)
Sitka Rocky Gutierrez

Weather History for PASI - January, 2013

Change the Weather History Date:

Friday, January 4, 2013

  Actual Average Record
Temperature  
Mean Temperature 39 °F -  
Max Temperature 44 °F 37 °F 50 °F (2003)
Min Temperature 34 °F 29 °F 6 °F (1965)
Degree Days  
Heating Degree Days 26    
Moisture  
Dew Point 34 °F    
Average Humidity 86    
Maximum Humidity 100    
Minimum Humidity 60    
Precipitation  
Precipitation 0.01 in - - ()
Sea Level Pressure  
Sea Level Pressure 29.89 in    
Wind  
Wind Speed 5 mph (East)    
Max Wind Speed 20 mph    
Max Gust Speed 29 mph    
Visibility 10 miles    
Events Rain    
Averages and records for this station are not official NWS values.
T = Trace of Precipitation, MM = Missing Value Source: NWS Daily Summary

Daily Weather History Graph

Daily Weather History Graph

Search for Another Location

Airport or City:

Trip Planner

Search our weather history database for the weather conditions in past years. The results will help you decide how hot, cold, wet, or windy it might be!

Date:

Astronomy

Jan. 04, 2013 Rise Set
Actual Time 8:38 AM AKST 3:35 PM AKST
Civil Twilight 7:49 AM AKST 4:23 PM AKST
Nautical Twilight 6:59 AM AKST 5:13 PM AKST
Astronomical Twilight 6:13 AM AKST 6:00 PM AKST
Moon No Moon Rise 10:48 AM AKST (1/4)
Length of Visible Light 8h 33m
Length of Day
6h 57m
Waning Gibbous, 53% of the Moon is Illuminated
Jan 4
Waning Gibbous
Jan 4
Last Quarter
Jan 11
New
Jan 18
First Quarter
Jan 26
Full

Hourly Weather History & Observations

Time (AKST) Temp. Windchill Dew Point Humidity Pressure Visibility Wind Dir Wind Speed Gust Speed Precip Events Conditions
12:16 AM 35.6 °F 30.7 °F 33.8 °F 93% 29.80 in 10.0 mi North 5.8 mph - 0.01 in Rain Light Rain
12:25 AM 35.6 °F - 33.8 °F 93% 29.81 in 10.0 mi Calm Calm - 0.01 in Rain Light Rain
12:33 AM 35.6 °F - 35.6 °F 100% 29.81 in 10.0 mi Calm Calm - 0.01 in Rain Light Rain
12:53 AM 35.1 °F 32.2 °F 34.0 °F 96% 29.82 in 10.0 mi ENE 3.5 mph - 0.01 in   Overcast
1:53 AM 36.0 °F 33.3 °F 35.1 °F 97% 29.85 in 10.0 mi NNW 3.5 mph - N/A   Overcast
3:22 AM 35.6 °F - 35.6 °F 100% 29.88 in 10.0 mi Calm Calm - N/A   Overcast
3:34 AM 35.6 °F - 35.6 °F 100% 29.88 in 10.0 mi Calm Calm - N/A   Overcast
3:41 AM 35.6 °F 30.7 °F 35.6 °F 100% 29.88 in 10.0 mi East 5.8 mph - N/A   Overcast
3:53 AM 36.0 °F 31.1 °F 36.0 °F 100% 29.89 in 10.0 mi ESE 5.8 mph - N/A   Overcast
4:53 AM 37.9 °F 32.1 °F 37.0 °F 97% 29.90 in 10.0 mi SE 8.1 mph - N/A   Overcast
5:02 AM 37.4 °F 32.1 °F 37.4 °F 100% 29.90 in 10.0 mi SE 6.9 mph - N/A   Overcast
5:53 AM 36.0 °F 31.1 °F 36.0 °F 100% 29.91 in 10.0 mi ESE 5.8 mph - N/A   Mostly Cloudy
6:53 AM 34.0 °F 29.8 °F 34.0 °F 100% 29.92 in 10.0 mi East 4.6 mph - N/A   Partly Cloudy
7:53 AM 35.1 °F 30.1 °F 35.1 °F 100% 29.95 in 10.0 mi ESE 5.8 mph - N/A   Clear
8:53 AM 35.1 °F 28.6 °F 34.0 °F 96% 29.97 in 10.0 mi East 8.1 mph - N/A   Mostly Cloudy
9:53 AM 36.0 °F 30.3 °F 34.0 °F 93% 30.00 in 10.0 mi East 6.9 mph - N/A   Overcast
10:53 AM 37.9 °F 33.5 °F 34.0 °F 86% 30.00 in 10.0 mi East 5.8 mph - N/A   Overcast
11:53 AM 37.9 °F 35.5 °F 36.0 °F 93% 29.99 in 10.0 mi ENE 3.5 mph - N/A   Mostly Cloudy
12:53 PM 39.0 °F 35.7 °F 36.0 °F 89% 29.99 in 10.0 mi North 4.6 mph - N/A   Clear
1:53 PM 39.9 °F - 34.0 °F 79% 29.98 in 10.0 mi Calm Calm - N/A   Overcast
2:53 PM 39.0 °F - 35.1 °F 86% 29.94 in 10.0 mi Calm Calm - N/A   Overcast
3:53 PM 42.1 °F 37.7 °F 30.9 °F 65% 29.93 in 10.0 mi ENE 6.9 mph - N/A   Overcast
4:53 PM 42.1 °F 34.9 °F 32.0 °F 67% 29.92 in 10.0 mi East 13.8 mph - N/A   Mostly Cloudy
5:53 PM 43.0 °F 35.7 °F 30.9 °F 62% 29.89 in 10.0 mi ESE 15.0 mph 23.0 mph N/A   Mostly Cloudy
6:53 PM 44.1 °F 37.1 °F 30.9 °F 60% 29.86 in 10.0 mi ESE 15.0 mph 28.8 mph N/A   Overcast
7:53 PM 44.1 °F 38.1 °F 32.0 °F 63% 29.85 in 10.0 mi ESE 11.5 mph - N/A   Overcast
8:53 PM 43.0 °F 36.4 °F 32.0 °F 65% 29.83 in 10.0 mi ESE 12.7 mph 19.6 mph N/A   Overcast
9:53 PM 43.0 °F 35.1 °F 34.0 °F 71% 29.83 in 10.0 mi ESE 17.3 mph 23.0 mph N/A   Overcast
10:53 PM 44.1 °F 37.7 °F 33.1 °F 65% 29.79 in 10.0 mi ESE 12.7 mph - N/A   Overcast
11:53 PM 44.1 °F 35.9 °F 33.1 °F 65% 29.77 in 10.0 mi ESE 19.6 mph 24.2 mph N/A   Overcast